DELTA 1 DEB, 10717

Orbit data source: Space-Track

DELTA 1 DEB, 10717 is space debris in SSO originally from a launch on Thu, 29 Jul 1976 UTC launched from the Air Force Western Test Range (AFWTR). Debris objects in space refer to the collection of defunct objects orbiting the Earth. Examples of debris include non-operational satellites, rocket bodies, and fragments generated from explosions, collisions, or faulty payload assembly.

Loading next visibility...
Identifier
10717, 1976-077AN
Orbit
SSO
Last TLE update
16 hours ago
Origin
Manufacturer
Unknown
Mission
Spacecraft
Bus & Motor
Unknown
Mass
Unknown
Launch date (UTC)
1976-07-29 (49 years ago)
Launch vehicle
Unknown
Launch site
Air Force Western Test Range (AFWTR)
Object type
Payload
Rocket body
Debris
Shape & HBR
Unknown
Radar Cross Section
Small (<0.1 m²)

Expand to show TLE details & history

TLE from 16 hours ago
0 DELTA 1 DEB
1 10717U 76077AN  25181.72512535 -.00000019  00000-0  24409-3 0  9993
2 10717 102.6032 160.6029 0099329 195.7161 345.1501 12.23311014184750
Epoch: 2025-06-30T17:24Z
TLE epoch observation values (Epoch: 2025-06-30T17:24:10.83Z)
Latitude
-0.66412°
Longitude
160.3792°
Altitude
1,504.395 km
Speed
7.146 km/s
True Right ascension
22h 41m 49s
True Declination
0° 39' 38"
Sunlit
Object was in daylight at epoch
Visualization orbit readout
Latitude
-59.14399°
Longitude
139.33154°
Altitude
1,546.298 km
Speed
7.118 km/s
Apparent Right ascension
07h 59m 38s
Apparent Declination
-85° 25' 45"
Sunlit
Object is in full shadow
Visualization observer readout
Local Sidereal Time
21:04:04
Azimuth
178.23° S
Elevation
-44.295°
Doppler factor
1
Orbital elements
Apogee altitude
1,654.791 km
Perigee altitude
1,496.78 km
Semi-major axis
7,953.922 km
Eccentricity
0.00993
Inclination
102.6032°
RAAN
160.6029°
Arg. of periapsis
195.7161°
True anomaly
Unknown
Mean anomaly
345.1501°
Eccentric anomaly
Unknown
Mean motion
3.05965 °/min
Orbital period
117.66 mins
BSTAR
0.00024409
Loading maneuver chart data...
Loading SW <> Apogee altitude chart data...
Loading historical data...
Loading historical data...
Loading historical data...
Loading historical data...
Loading historical data...
Loading historical data...
Loading historical data...

DELTA 1 DEB Visibility forecast

Observer location: undefined°, undefined°

Span
Click to sort rows by Start time (UTC) header in descending order
Start Az.
Max El. time (UTC)
Max El. Az.
Max El.
End time (UTC)
End Az.
15 mins2025-07-01 10:43:47.528Z32.463° NE2025-07-01 10:51:47.528Z104.697° ESE34.108°2025-07-01 10:58:47.528Z167.426° S
15 mins2025-07-01 12:39:47.528Z4.662° NNE2025-07-01 12:46:47.528Z300.942° NW35.364°2025-07-01 12:54:47.528Z231.032° WSW
10 mins2025-07-01 20:06:47.528Z81.681° E2025-07-01 20:11:47.528Z45.798° ENE17.972°2025-07-01 20:16:47.528Z10.436° NNE
16 mins2025-07-01 21:57:47.528Z148.425° SSE2025-07-01 22:05:47.528Z50.536° ENE43.766°2025-07-01 22:13:47.528Z345.659° N
12 mins2025-07-01 23:55:47.528Z220.201° SW2025-07-02 00:01:47.528Z268.463° W23.551°2025-07-02 00:07:47.528Z313.712° NW
|